Back to catalog

CZ-6A DEB

AlivePO
NORAD 61327·DEBRIS·🇨🇳 China

Launched Aug 6, 2024 from Taiyuan Satellite Launch Center

Loading…

Next Passes (next 24 hours)

TLE

FreshSource: Space-Track

Epoch: Sep 13, 2026, 00:40 UTC

1 61327U 24140UQ  26256.02785916  .00087147  00000-0  12417-2 0  9993
2 61327  89.0669 255.3455 0056856  53.5411 307.1073 15.54102120111866

Track CZ-6A DEB in real time with AllMySat

Download on the App Store